Ricardo Santana, Jr.

Ricardo Santana, Jr.

Statistiques 2026

  • Courses courues : 27
  • Nb de victoires : 7
  • Nb de places : 17
  • Écart gagnant : -
  • Réussite à la gagne : 26%
  • Réussite à la place : 63%
Musique : 1p 0p 0p 1p 0p 1p 0p 5p 4p 0p 0p 4p 0p 3p 4p 2p 0p 3p
DateRangCatégorieAlloc.Dist.HippodromeChevalPoidsSpé.
06/08/23 8 Galop 124 090€ Saratoga Six Pack Senorita 53,5 Plat
06/08/23 8 Galop 32 727€ Saratoga Sprinklehead 55,5 Plat
06/08/23 1 Galop 124 090€ Saratoga Empire Island 53,5 Plat
06/08/23 2 Galop 45 454€ Saratoga Unaffected 53 Plat
09/08/23 2 Galop 40 909€ Saratoga Our Rosie Diamonds 53 Plat
09/08/23 7 Galop 80 000€ Saratoga Z Dancer 53 Plat
12/08/23 4 Galop 80 000€ Saratoga Apollo Code 53,5 Plat
12/08/23 2 Galop 63 636€ Saratoga Freudian 56,5 Plat
27/08/23 10 Galop 86 363€ Saratoga Ranting 54 Plat
07/10/23 0 Galop 113 207€ Keeneland Mammas Girl 53 Plat
07/10/23 1 Galop 94 339€ Keeneland Three Polks 54,5 Plat
07/10/23 10 Galop 94 339€ Keeneland Toolpusher 53,5 Plat
06/10/23 9 Galop 113 207€ Keeneland Drakon 56 Plat
06/10/23 3 Galop 330 188€ Keeneland Crown Imperial 53 Plat
06/10/23 6 Galop 330 188€ Keeneland Gulfstream Way 54 Plat
06/10/23 5 Galop 94 339€ Keeneland C'Est Cheese 53,5 Plat
06/10/23 2 Galop 94 339€ Keeneland Loveland 53,5 Plat
13/09/23 1 Galop 462 962€ Kentucky Downs Crown Imperial 54 Plat
13/09/23 4 Galop 138 888€ Kentucky Downs Cleopatra's Nile 53,5 Plat
10/09/23 5 Galop 148 148€ Kentucky Downs Silky Warrior 55 Plat
10/09/23 8 Galop 148 148€ Kentucky Downs Woodbine Way 54,5 Plat
10/09/23 9 Galop 148 148€ Kentucky Downs Yono 55 Plat
04/09/23 10 Galop 81 481€ Saratoga Unaffected 54 Plat
04/09/23 8 Galop 87 962€ Saratoga Thank You Jon 54 Plat
04/09/23 1 Galop 81 481€ Saratoga Bonne Chance 53,5 Plat
04/09/23 6 Galop 66 666€ Saratoga Float On 53 Plat
04/09/23 4 Galop 138 425€ Saratoga Toned Up 56 Plat
04/09/23 3 Galop 81 481€ Saratoga Red Burgundy 52 Plat
30/08/23 3 Galop 141 818€ Saratoga Shezz Koldazice 56,5 Plat
30/08/23 2 Galop 75 454€ Saratoga Tempting Lady 53,5 Plat
30/08/23 4 Galop 124 090€ Saratoga Clearly A Test 53,5 Plat
31/08/23 1 Galop 63 636€ Saratoga Locke And Key 56 Plat
31/08/23 6 Galop 159 090€ Saratoga Wine Collector 55 Plat
31/08/23 6 Galop 36 363€ Saratoga Saline River 53,5 Plat
19/08/23 4 Galop 45 454€ Saratoga Spoofy 53,5 Plat
12/08/23 3 Galop 80 000€ Saratoga Foxy Cara 53,5 Plat
12/08/23 2 Galop 136 363€ Saratoga Stone Silent 55 Plat
12/08/23 1 Galop 181 818€ Saratoga Rhyme Schemes 54 Plat
12/08/23 3 Galop 63 636€ Saratoga Order Of Magnitude 56,5 Plat
13/08/23 2 Galop 124 090€ Saratoga Stellamaris 53,5 Plat
13/08/23 8 Galop 124 090€ Saratoga Out Too Late 53,5 Plat
13/08/23 6 Galop 58 181€ Saratoga Swiftsure 53 Plat
13/08/23 4 Galop 135 909€ Saratoga Our Dream Rye'd 55 Plat
13/08/23 10 Galop 75 454€ Saratoga Althena 53,5 Plat
13/08/23 4 Galop 141 818€ Saratoga Willy Boi 55 Plat
19/08/23 7 Galop 45 454€ Saratoga Pinstripepizzo 53 Plat
19/08/23 9 Galop 141 818€ Saratoga Floki's Flight 56 Plat
24/08/23 7 Galop 124 090€ Saratoga Atlantic Dancer 56 Plat
27/08/23 4 Galop 80 000€ Saratoga Dusk 53,5 Plat
27/08/23 3 Galop 181 818€ Saratoga Runaway Rumour 55 Plat